,,PA_Meas_PMT16A,,PR_Meas_QMR101_102,,RH_Meas_QMH101,,SR_Meas_QMS101,,TA_Meas_QMH101,,GenWind,,GenWind,
time,status,PA,status,PR,status,RH,status,SR,status,TA,status,DirAvg,status,SpdAvg,
2013-09-17, 06:49:04,VALID,917.377,VALID,0,VALID,96.1846,VALID,46.4146,VALID,18.6708,VALID,142,VALID,0,
2013-09-17, 06:50:04,VALID,917.364,VALID,0,VALID,96.1694,VALID,47.489,VALID,18.7098,VALID,142,VALID,0,
2013-09-17, 06:51:04,VALID,917.376,VALID,0,VALID,96.177,VALID,48.6708,VALID,18.7488,VALID,142,VALID,0,
2013-09-17, 06:52:04,VALID,917.418,VALID,0,VALID,96.1541,VALID,50.0676,VALID,18.8073,VALID,142,VALID,0,
2013-09-17, 06:53:04,VALID,917.421,VALID,0,VALID,96.1008,VALID,51.3569,VALID,18.8839,VALID,142,VALID,0,
2013-09-17, 06:54:04,VALID,917.459,VALID,0,VALID,96.0703,VALID,52.7536,VALID,18.9842,VALID,142,VALID,0,
2013-09-17, 06:55:04,VALID,917.486,VALID,0,VALID,95.9407,VALID,54.2578,VALID,18.9424,VALID,129,VALID,0,
2013-09-17, 06:56:04,VALID,917.512,VALID,0,VALID,95.7882,VALID,55.6545,VALID,19.0023,VALID,123,VALID,0,
2013-09-17, 06:57:04,VALID,917.521,VALID,0,VALID,95.6434,VALID,57.1587,VALID,19.0413,VALID,123,VALID,0,
2013-09-17, 06:58:04,VALID,917.556,VALID,0,VALID,95.4985,VALID,58.7703,VALID,19.0608,VALID,123,VALID,0,
2013-09-17, 06:59:04,VALID,917.58,VALID,0,VALID,95.3461,VALID,60.4894,VALID,19.0998,VALID,123,VALID,0,
2013-09-17, 07:00:04,VALID,917.595,VALID,0,VALID,95.2165,VALID,62.4233,VALID,19.1373,VALID,123,VALID,0,
2013-09-17, 07:01:04,VALID,917.62,VALID,0,VALID,95.1326,VALID,64.5721,VALID,19.1973,VALID,124,VALID,0,
2013-09-17, 07:02:04,VALID,917.649,VALID,0,VALID,95.0792,VALID,66.9358,VALID,19.1778,VALID,134,VALID,0,
2013-09-17, 07:03:04,VALID,917.65,VALID,0,VALID,95.0335,VALID,69.1921,VALID,19.1568,VALID,134,VALID,0,
2013-09-17, 07:04:04,VALID,917.672,VALID,0,VALID,95.0564,VALID,71.4484,VALID,19.1778,VALID,134,VALID,0,
2013-09-17, 07:05:04,VALID,917.698,VALID,0,VALID,95.1174,VALID,73.4897,VALID,19.1778,VALID,134,VALID,0,
2013-09-17, 07:06:04,VALID,917.727,VALID,0,VALID,95.1555,VALID,75.4237,VALID,19.2168,VALID,134,VALID,0,
2013-09-17, 07:07:04,VALID,917.745,VALID,0,VALID,95.1936,VALID,77.5725,VALID,19.2153,VALID,134,VALID,0,
2013-09-17, 07:08:04,VALID,917.763,VALID,0,VALID,95.0411,VALID,79.8288,VALID,19.2363,VALID,134,VALID,0,
2013-09-17, 07:09:04,VALID,917.799,VALID,0,VALID,94.9496,VALID,82.6222,VALID,19.2738,VALID,134,VALID,0,
2013-09-17, 07:10:04,VALID,917.827,VALID,0,VALID,95.0183,VALID,85.8455,VALID,19.3518,VALID,134,VALID,0,
2013-09-17, 07:11:04,VALID,917.876,VALID,0,VALID,94.9115,VALID,89.6059,VALID,19.3518,VALID,134,VALID,0,
2013-09-17, 07:12:04,VALID,917.876,VALID,0,VALID,94.9115,VALID,93.6887,VALID,19.3923,VALID,134,VALID,0,
2013-09-17, 07:13:04,VALID,917.902,VALID,0,VALID,94.9725,VALID,97.7714,VALID,19.4508,VALID,134,VALID,0,
2013-09-17, 07:14:04,VALID,917.92,VALID,0,VALID,95.0183,VALID,101.424,VALID,19.4898,VALID,134,VALID,0,
2013-09-17, 07:15:04,VALID,917.932,VALID,0,VALID,95.0488,VALID,104.755,VALID,19.5078,VALID,134,VALID,0,
2013-09-17, 07:16:04,VALID,917.911,VALID,0,VALID,94.9268,VALID,107.871,VALID,19.5273,VALID,134,VALID,0,
2013-09-17, 07:17:04,VALID,917.943,VALID,0,VALID,94.8505,VALID,110.879,VALID,19.6068,VALID,134,VALID,0,
2013-09-17, 07:18:04,VALID,917.982,VALID,0,VALID,94.8582,VALID,113.565,VALID,19.6638,VALID,134,VALID,0,
2013-09-17, 07:19:04,VALID,917.97,VALID,0,VALID,94.5227,VALID,115.822,VALID,19.7238,VALID,134,VALID,0,
2013-09-17, 07:20:04,VALID,917.998,VALID,0,VALID,94.4313,VALID,117.756,VALID,19.8018,VALID,134,VALID,0,
2013-09-17, 07:21:04,VALID,918.002,VALID,0,VALID,93.8671,VALID,119.475,VALID,19.8213,VALID,134,VALID,0,
2013-09-17, 07:22:04,VALID,918.009,VALID,0,VALID,93.8443,VALID,120.871,VALID,19.8993,VALID,134,VALID,0,
2013-09-17, 07:23:04,VALID,918.021,VALID,0,VALID,93.4173,VALID,122.375,VALID,19.9368,VALID,134,VALID,0,
2013-09-17, 07:24:04,VALID,918.018,VALID,0,VALID,93.0743,VALID,124.309,VALID,19.9773,VALID,134,VALID,0,
2013-09-17, 07:25:04,VALID,918.027,VALID,0,VALID,93.1124,VALID,126.673,VALID,20.0538,VALID,134,VALID,0,
2013-09-17, 07:26:04,VALID,918.025,VALID,0,VALID,93.3259,VALID,129.144,VALID,20.1334,VALID,134,VALID,0,
2013-09-17, 07:27:04,VALID,918.016,VALID,0,VALID,93.2725,VALID,131.293,VALID,20.1919,VALID,134,VALID,0,
2013-09-17, 07:28:04,VALID,917.964,VALID,0,VALID,92.4644,VALID,132.582,VALID,20.1919,VALID,134,VALID,0,
2013-09-17, 07:29:04,VALID,917.951,VALID,0,VALID,92.4949,VALID,133.12,VALID,20.2684,VALID,134,VALID,0,
2013-09-17, 07:30:04,VALID,917.945,VALID,0,VALID,91.9003,VALID,133.979,VALID,20.3074,VALID,134,VALID,0,
2013-09-17, 07:31:04,VALID,917.946,VALID,0,VALID,91.5801,VALID,134.731,VALID,20.3464,VALID,134,VALID,0,
2013-09-17, 07:32:04,VALID,917.973,VALID,0,VALID,90.7034,VALID,135.698,VALID,20.3659,VALID,128,VALID,0,
2013-09-17, 07:33:04,VALID,917.978,VALID,0,VALID,89.8725,VALID,137.095,VALID,20.4064,VALID,124,VALID,0,
2013-09-17, 07:34:04,VALID,918.01,VALID,0,VALID,90.4823,VALID,139.136,VALID,20.4829,VALID,124,VALID,0,
2013-09-17, 07:35:04,VALID,918.031,VALID,0,VALID,90.4671,VALID,141.715,VALID,20.543,VALID,124,VALID,0,
2013-09-17, 07:36:04,VALID,918.026,VALID,0,VALID,90.6729,VALID,144.616,VALID,20.5999,VALID,124,VALID,0,
2013-09-17, 07:37:04,VALID,918.047,VALID,0,VALID,89.8725,VALID,147.087,VALID,20.6194,VALID,124,VALID,0,
2013-09-17, 07:38:04,VALID,918.043,VALID,0,VALID,90.124,VALID,148.699,VALID,20.639,VALID,124,VALID,0,
2013-09-17, 07:39:04,VALID,918.048,VALID,0,VALID,90.6653,VALID,149.558,VALID,20.6975,VALID,124,VALID,0,
2013-09-17, 07:40:04,VALID,918.066,VALID,0,VALID,90.6958,VALID,150.847,VALID,20.7349,VALID,124,VALID,0,
2013-09-17, 07:41:04,VALID,918.096,VALID,0,VALID,90.2079,VALID,152.244,VALID,20.795,VALID,123,VALID,0,
2013-09-17, 07:42:04,VALID,918.075,VALID,0,VALID,88.7823,VALID,153.856,VALID,20.7739,VALID,15,VALID,0,
2013-09-17, 07:43:04,VALID,918.08,VALID,0,VALID,87.6007,VALID,154.93,VALID,20.7739,VALID,41,VALID,0,
2013-09-17, 07:44:04,VALID,918.125,VALID,0,VALID,86.541,VALID,155.038,VALID,20.756,VALID,33,VALID,0,
2013-09-17, 07:45:04,VALID,918.132,VALID,0,VALID,87.8141,VALID,154.93,VALID,20.7755,VALID,39,VALID,0,
2013-09-17, 07:46:04,VALID,918.194,VALID,0,VALID,88.2944,VALID,154.071,VALID,20.8161,VALID,33,VALID,0,
2013-09-17, 07:47:04,VALID,918.195,VALID,0,VALID,88.6908,VALID,153.426,VALID,20.8356,VALID,33,VALID,0,
2013-09-17, 07:48:04,VALID,918.253,VALID,0,VALID,89.6437,VALID,152.889,VALID,20.8551,VALID,33,VALID,0,
2013-09-17, 07:49:04,VALID,918.309,VALID,0,VALID,90.2536,VALID,152.566,VALID,20.8714,VALID,33,VALID,0,
2013-09-17, 07:50:04,VALID,918.332,VALID,0,VALID,90.5662,VALID,152.459,VALID,20.912,VALID,40,VALID,0,
2013-09-17, 07:51:04,VALID,918.367,VALID,0,VALID,90.9702,VALID,152.996,VALID,20.8925,VALID,48,VALID,0,
2013-09-17, 07:52:04,VALID,918.391,VALID,0,VALID,90.8635,VALID,153.963,VALID,20.834,VALID,139,VALID,0,
2013-09-17, 07:53:04,VALID,918.421,VALID,0,VALID,91.2752,VALID,155.038,VALID,20.8324,VALID,139,VALID,0,
2013-09-17, 07:54:04,VALID,918.417,VALID,0,VALID,91.3361,VALID,155.36,VALID,20.8519,VALID,112,VALID,0,
2013-09-17, 07:55:04,VALID,918.41,VALID,0,VALID,90.7644,VALID,154.823,VALID,20.834,VALID,129,VALID,0,
2013-09-17, 07:56:04,VALID,918.393,VALID,0,VALID,90.7949,VALID,153.963,VALID,20.834,VALID,153,VALID,0,
2013-09-17, 07:57:04,VALID,918.392,VALID,0,VALID,90.5281,VALID,153.641,VALID,20.795,VALID,153,VALID,0,
2013-09-17, 07:58:04,VALID,918.373,VALID,0,VALID,90.3222,VALID,153.963,VALID,20.7755,VALID,153,VALID,0,
2013-09-17, 07:59:04,VALID,918.368,VALID,0,VALID,90.2765,VALID,154.823,VALID,20.7154,VALID,157,VALID,0,
2013-09-17, 08:00:04,VALID,918.388,VALID,0,VALID,90.5052,VALID,156.864,VALID,20.6764,VALID,141,VALID,0,
2013-09-17, 08:01:04,VALID,918.365,VALID,0,VALID,91.0693,VALID,159.12,VALID,20.6959,VALID,138,VALID,0,
2013-09-17, 08:02:04,VALID,918.381,VALID,0,VALID,91.077,VALID,161.591,VALID,20.7154,VALID,138,VALID,0,
2013-09-17, 08:03:04,VALID,918.358,VALID,0,VALID,90.7339,VALID,163.311,VALID,20.7349,VALID,111,VALID,0,
2013-09-17, 08:04:04,VALID,918.333,VALID,0,VALID,90.8101,VALID,165.03,VALID,20.7755,VALID,67,VALID,0,
2013-09-17, 08:05:04,VALID,918.318,VALID,0,VALID,90.711,VALID,167.071,VALID,20.795,VALID,72,VALID,0,
2013-09-17, 08:06:04,VALID,918.275,VALID,0,VALID,89.9716,VALID,169.757,VALID,20.795,VALID,83,VALID,0,
2013-09-17, 08:07:04,VALID,918.256,VALID,0,VALID,89.9106,VALID,173.625,VALID,20.8145,VALID,84,VALID,0,
2013-09-17, 08:08:04,VALID,918.23,VALID,0,VALID,90.124,VALID,177.385,VALID,20.834,VALID,84,VALID,0,
2013-09-17, 08:09:04,VALID,918.227,VALID,0,VALID,89.6666,VALID,181.361,VALID,20.8535,VALID,84,VALID,0,
2013-09-17, 08:10:04,VALID,918.226,VALID,0,VALID,90.0783,VALID,185.336,VALID,20.8714,VALID,77,VALID,0,
2013-09-17, 08:11:04,VALID,918.238,VALID,0,VALID,90.0478,VALID,189.419,VALID,20.9105,VALID,77,VALID,0,
2013-09-17, 08:12:04,VALID,918.253,VALID,0,VALID,89.7657,VALID,193.179,VALID,20.9901,VALID,75,VALID,0,
2013-09-17, 08:13:04,VALID,918.223,VALID,0,VALID,89.9944,VALID,196.832,VALID,21.0681,VALID,75,VALID,0,
2013-09-17, 08:14:04,VALID,918.231,VALID,0,VALID,89.5523,VALID,200.27,VALID,21.1657,VALID,75,VALID,0,
2013-09-17, 08:15:04,VALID,918.242,VALID,0,VALID,88.7137,VALID,203.816,VALID,21.2242,VALID,75,VALID,0,
2013-09-17, 08:16:04,VALID,918.258,VALID,0,VALID,87.776,VALID,207.791,VALID,21.2827,VALID,75,VALID,0,
2013-09-17, 08:17:04,VALID,918.281,VALID,0,VALID,86.8612,VALID,212.089,VALID,21.3217,VALID,75,VALID,0,
2013-09-17, 08:18:04,VALID,918.288,VALID,0,VALID,87.6083,VALID,216.601,VALID,21.4193,VALID,71,VALID,0,
2013-09-17, 08:19:04,VALID,918.29,VALID,0,VALID,86.6249,VALID,221.114,VALID,21.4973,VALID,52,VALID,0,
2013-09-17, 08:20:04,VALID,918.286,VALID,0,VALID,86.0226,VALID,225.089,VALID,21.5754,VALID,52,VALID,0,
2013-09-17, 08:21:04,VALID,918.296,VALID,0,VALID,82.8742,VALID,228.312,VALID,21.5754,VALID,52,VALID,0,
2013-09-17, 08:22:04,VALID,918.308,VALID,0,VALID,83.3239,VALID,230.891,VALID,21.5754,VALID,52,VALID,0,
2013-09-17, 08:23:04,VALID,918.269,VALID,0,VALID,84.1854,VALID,233.47,VALID,21.5347,VALID,55,VALID,0,
2013-09-17, 08:24:04,VALID,918.289,VALID,0,VALID,84.7571,VALID,235.296,VALID,21.5152,VALID,28,VALID,0,
2013-09-17, 08:25:04,VALID,918.27,VALID,0,VALID,84.7038,VALID,236.908,VALID,21.4567,VALID,13,VALID,0,
2013-09-17, 08:26:04,VALID,918.273,VALID,0,VALID,85.0316,VALID,237.875,VALID,21.4177,VALID,13,VALID,0,
2013-09-17, 08:27:04,VALID,918.302,VALID,0,VALID,85.6872,VALID,237.982,VALID,21.4567,VALID,13,VALID,0,
2013-09-17, 08:28:04,VALID,918.343,VALID,0,VALID,86.0303,VALID,238.842,VALID,21.5347,VALID,13,VALID,0,
2013-09-17, 08:29:04,VALID,918.354,VALID,0,VALID,86.4724,VALID,240.453,VALID,21.5152,VALID,13,VALID,0,
2013-09-17, 08:30:04,VALID,918.352,VALID,0,VALID,86.9679,VALID,242.71,VALID,21.5152,VALID,13,VALID,0,
2013-09-17, 08:31:04,VALID,918.391,VALID,0,VALID,87.2424,VALID,244.966,VALID,21.5542,VALID,12,VALID,0,
2013-09-17, 08:32:04,VALID,918.398,VALID,0,VALID,86.2513,VALID,247.974,VALID,21.6323,VALID,13,VALID,0,
2013-09-17, 08:33:04,VALID,918.417,VALID,0,VALID,85.2145,VALID,253.776,VALID,21.6713,VALID,13,VALID,0,
2013-09-17, 08:34:04,VALID,918.453,VALID,0,VALID,85.2984,VALID,263.446,VALID,21.7103,VALID,12,VALID,0,
2013-09-17, 08:35:04,VALID,918.51,VALID,0,VALID,86.1751,VALID,277.628,VALID,21.8079,VALID,12,VALID,0,
2013-09-17, 08:36:04,VALID,918.558,VALID,0,VALID,82.3939,VALID,291.488,VALID,21.8469,VALID,1,VALID,0,
2013-09-17, 08:37:04,VALID,918.553,VALID,0,VALID,84.1549,VALID,306.852,VALID,21.9054,VALID,4,VALID,0,
2013-09-17, 08:38:04,VALID,918.572,VALID,0,VALID,84.254,VALID,325.547,VALID,21.9835,VALID,22,VALID,0,
2013-09-17, 08:39:04,VALID,918.566,VALID,0,VALID,80.5948,VALID,357.242,VALID,22.042,INVALID,360,VALID,0,
2013-09-17, 08:40:04,VALID,918.594,VALID,0,VALID,80.7091,VALID,394.631,VALID,22.081,VALID,33,VALID,0,
2013-09-17, 08:41:04,VALID,918.551,VALID,0,VALID,81.9212,VALID,421.062,VALID,22.1769,VALID,9,VALID,0,
2013-09-17, 08:42:04,VALID,918.567,VALID,0,VALID,80.3508,VALID,454.691,VALID,22.2567,VALID,22,VALID,0,
2013-09-17, 08:43:04,VALID,918.598,VALID,0,VALID,80.4423,VALID,424.822,VALID,22.2354,VALID,52,VALID,0,
2013-09-17, 08:44:04,VALID,918.613,VALID,0,VALID,80.7853,VALID,403.656,VALID,22.3542,VALID,350,VALID,0,
2013-09-17, 08:45:04,VALID,918.572,VALID,0,VALID,79.5808,VALID,395.169,VALID,22.4111,VALID,4,VALID,0,
2013-09-17, 08:46:04,VALID,918.59,VALID,0,VALID,78.8414,VALID,409.888,VALID,22.5086,VALID,9,VALID,0,
2013-09-17, 08:47:04,VALID,918.611,VALID,0,VALID,74.6027,VALID,470.592,VALID,22.4696,VALID,32,VALID,0,
2013-09-17, 08:48:04,VALID,918.628,VALID,0,VALID,75.4566,VALID,521.304,VALID,22.4696,VALID,60,VALID,0,
2013-09-17, 08:49:04,VALID,918.653,VALID,0,VALID,76.44,VALID,816.768,VALID,22.5706,VALID,64,VALID,0,
2013-09-17, 08:50:04,VALID,918.667,VALID,0,VALID,77.1185,VALID,611.448,VALID,22.6274,VALID,110,VALID,0,
2013-09-17, 08:51:04,VALID,918.667,VALID,0,VALID,76.0207,VALID,549.454,VALID,22.6665,VALID,97,VALID,0,
2013-09-17, 08:52:04,VALID,918.703,VALID,0,VALID,76.9431,VALID,531.834,VALID,22.7836,VALID,18,VALID,0,
2013-09-17, 08:53:04,VALID,918.726,VALID,0,VALID,78.2162,VALID,494.444,VALID,22.8421,VALID,25,VALID,0,
2013-09-17, 08:54:04,VALID,918.726,VALID,0,VALID,77.2481,VALID,519.585,VALID,22.8616,VALID,16,VALID,0,
2013-09-17, 08:55:04,VALID,918.759,VALID,0,VALID,78.0333,VALID,544.512,VALID,22.9397,VALID,332,VALID,0,
2013-09-17, 08:56:04,VALID,918.818,VALID,0,VALID,73.5736,VALID,661.085,VALID,23.0178,VALID,18,VALID,0,
2013-09-17, 08:57:04,VALID,918.787,VALID,0,VALID,75.1059,VALID,591.786,VALID,23.0746,VALID,46,VALID,0,
2013-09-17, 08:58:04,VALID,918.833,VALID,0,VALID,75.6929,VALID,488.427,VALID,23.2325,VALID,46,VALID,0,
2013-09-17, 08:59:04,VALID,918.832,VALID,0,VALID,75.9673,VALID,494.337,VALID,23.3869,VALID,46,VALID,0,
2013-09-17, 09:00:04,VALID,918.872,VALID,0,VALID,74.4884,VALID,504.221,VALID,23.6016,VALID,36,VALID,0,
2013-09-17, 09:01:04,VALID,918.875,VALID,0,VALID,71.0197,VALID,486.171,VALID,23.8163,VALID,18,VALID,0,
2013-09-17, 09:02:04,VALID,918.894,VALID,0,VALID,73.9166,VALID,505.403,VALID,23.9725,VALID,261,VALID,0,
2013-09-17, 09:03:04,VALID,918.936,VALID,0,VALID,71.8202,VALID,485.527,VALID,23.8944,VALID,245,VALID,0,
2013-09-17, 09:04:04,VALID,918.939,VALID,0,VALID,74.0005,VALID,510.56,VALID,23.7968,VALID,246,VALID,0,
2013-09-17, 09:05:04,VALID,918.957,VALID,0,VALID,70.2727,VALID,583.405,VALID,23.6211,VALID,249,VALID,0,
2013-09-17, 09:06:04,VALID,918.979,VALID,0,VALID,71.4085,VALID,598.34,VALID,23.4454,VALID,251,VALID,0,
2013-09-17, 09:07:04,VALID,918.989,VALID,0,VALID,69.9677,VALID,565.785,VALID,23.307,VALID,248,VALID,0,
2013-09-17, 09:08:04,VALID,918.994,VALID,0,VALID,70.9283,VALID,617.679,VALID,23.2698,VALID,240,VALID,0,
2013-09-17, 09:09:04,VALID,919,VALID,0,VALID,70.3031,VALID,559.768,VALID,23.4046,VALID,235,VALID,0,
2013-09-17, 09:10:04,VALID,919.007,VALID,0,VALID,69.1977,VALID,468.981,VALID,23.5821,VALID,236,VALID,0,
2013-09-17, 09:11:04,VALID,919.005,VALID,0,VALID,69.861,VALID,529.363,VALID,23.7578,VALID,236,VALID,0,
2013-09-17, 09:12:04,VALID,919.013,VALID,0,VALID,69.2206,VALID,589.959,VALID,24.0097,VALID,305,VALID,0,
2013-09-17, 09:13:04,VALID,919.066,VALID,0,VALID,68.1457,VALID,627.134,VALID,24.3435,VALID,22,VALID,0,
2013-09-17, 09:14:04,VALID,919.085,VALID,0,VALID,67.6045,VALID,743.493,VALID,24.6149,VALID,238,VALID,0,
2013-09-17, 09:15:04,VALID,919.09,VALID,0,VALID,61.8411,VALID,488.75,VALID,24.5173,VALID,256,VALID,0,
2013-09-17, 09:16:04,VALID,919.088,VALID,0,VALID,63.9147,VALID,705.673,VALID,24.4978,VALID,256,VALID,0,
2013-09-17, 09:17:04,VALID,919.131,VALID,0,VALID,62.6874,VALID,637.019,VALID,24.693,VALID,256,VALID,0,
2013-09-17, 09:18:04,VALID,919.151,VALID,0,VALID,56.4133,VALID,628.101,VALID,24.654,VALID,256,VALID,0,
2013-09-17, 09:19:04,VALID,919.124,VALID,0,VALID,58.746,VALID,624.341,VALID,24.6754,VALID,256,VALID,0,
2013-09-17, 09:20:04,VALID,919.134,VALID,0,VALID,59.2111,VALID,685.797,VALID,24.734,VALID,177,VALID,0,
2013-09-17, 09:21:04,VALID,919.111,VALID,0,VALID,63.3582,VALID,739.947,VALID,24.6754,VALID,224,VALID,0,
2013-09-17, 09:22:04,VALID,919.141,VALID,0,VALID,61.1017,VALID,739.303,VALID,24.5582,VALID,254,VALID,0,
2013-09-17, 09:23:04,VALID,919.137,VALID,0,VALID,64.6694,VALID,613.811,VALID,24.4411,VALID,237,VALID,0,
2013-09-17, 09:24:04,VALID,919.134,VALID,0,VALID,60.4537,VALID,654.424,VALID,24.2849,VALID,258,VALID,0,
2013-09-17, 09:25:04,VALID,919.121,VALID,0,VALID,62.3214,VALID,661.73,VALID,24.1269,VALID,258,VALID,0,
2013-09-17, 09:26:04,VALID,919.115,VALID,0,VALID,65.2946,VALID,578.356,VALID,24.1873,VALID,313,VALID,0,
2013-09-17, 09:27:04,VALID,919.125,VALID,0,VALID,60.7205,VALID,554.934,VALID,24.1269,VALID,316,VALID,0,
2013-09-17, 09:28:04,VALID,919.12,VALID,0,VALID,62.977,VALID,493.37,VALID,24.0701,VALID,281,VALID,0,
2013-09-17, 09:29:04,VALID,919.083,VALID,0,VALID,63.6784,VALID,514.321,VALID,24.1677,VALID,296,VALID,0,
2013-09-17, 09:30:04,VALID,919.077,VALID,0,VALID,62.0927,VALID,473.708,VALID,24.3806,VALID,299,VALID,0,
2013-09-17, 09:31:04,VALID,919.08,VALID,0,VALID,59.8743,VALID,478.65,VALID,24.5973,VALID,273,VALID,0,
2013-09-17, 09:32:04,VALID,919.079,VALID,0,VALID,62.6264,VALID,442.765,VALID,24.4978,VALID,272,VALID,0,
2013-09-17, 09:33:04,VALID,919.062,VALID,0,VALID,61.4828,VALID,433.74,VALID,24.4783,VALID,258,VALID,0,
2013-09-17, 09:34:04,VALID,919.059,VALID,0,VALID,60.0268,VALID,416.872,VALID,24.4783,VALID,258,VALID,0,
2013-09-17, 09:35:04,VALID,919.071,VALID,0,VALID,62.5349,VALID,412.144,VALID,24.5368,VALID,344,VALID,0,
2013-09-17, 09:36:04,VALID,919.116,VALID,0,VALID,65.1878,VALID,447.278,VALID,24.4978,VALID,22,VALID,0,
2013-09-17, 09:37:04,VALID,919.126,VALID,0,VALID,62.6416,VALID,476.824,VALID,24.4002,VALID,313,VALID,0,
2013-09-17, 09:38:04,VALID,919.125,VALID,0,VALID,58.3496,VALID,419.45,VALID,24.3221,VALID,256,VALID,0,
2013-09-17, 09:39:04,VALID,919.113,VALID,0,VALID,59.1653,VALID,415.582,VALID,23.9707,VALID,244,VALID,0,
2013-09-17, 09:40:04,VALID,919.092,VALID,0,VALID,60.3775,VALID,437.178,VALID,23.8536,VALID,245,VALID,0,
2013-09-17, 09:41:04,VALID,919.074,VALID,0,VALID,61.9555,VALID,476.716,VALID,23.9707,VALID,232,VALID,0,
2013-09-17, 09:42:04,VALID,919.08,VALID,0,VALID,64.8524,VALID,440.401,VALID,24.1464,VALID,65,VALID,0,
2013-09-17, 09:43:04,VALID,919.088,VALID,0,VALID,61.4905,VALID,456.84,VALID,24.3026,VALID,191,VALID,0,
2013-09-17, 09:44:04,VALID,919.096,VALID,0,VALID,59.8362,VALID,510.453,VALID,24.3026,VALID,233,VALID,0,
2013-09-17, 09:45:04,VALID,919.071,VALID,0,VALID,60.0573,VALID,572.124,VALID,24.3239,VALID,232,VALID,0,
2013-09-17, 09:46:04,VALID,919.056,VALID,0,VALID,61.3456,VALID,486.494,VALID,24.4587,VALID,329,VALID,0,
2013-09-17, 09:47:04,VALID,919.017,VALID,0,VALID,59.4779,VALID,491.113,VALID,24.4978,VALID,13,VALID,0,
2013-09-17, 09:48:04,VALID,919.017,VALID,0,VALID,57.8084,VALID,505.403,VALID,24.4978,VALID,354,VALID,0,
2013-09-17, 09:49:04,VALID,919.028,VALID,0,VALID,60.2021,VALID,564.066,VALID,24.5368,VALID,354,VALID,0,
2013-09-17, 09:50:04,VALID,919.011,VALID,0,VALID,61.8793,VALID,553.429,VALID,24.5173,VALID,354,VALID,0,
2013-09-17, 09:51:04,VALID,919.026,VALID,0,VALID,59.2416,VALID,529.363,VALID,24.5368,VALID,292,VALID,0,
2013-09-17, 09:52:04,VALID,918.975,VALID,0,VALID,58.6698,VALID,593.935,VALID,24.5954,VALID,292,VALID,0,
2013-09-17, 09:53:04,VALID,918.973,VALID,0,VALID,57.2671,VALID,568.364,VALID,24.4587,VALID,292,VALID,0,
2013-09-17, 09:54:04,VALID,918.983,VALID,0,VALID,58.3725,VALID,585.447,VALID,24.2421,VALID,292,VALID,0,
2013-09-17, 09:55:04,VALID,918.942,VALID,0,VALID,61.7878,VALID,636.052,VALID,24.2226,VALID,294,VALID,0,
2013-09-17, 09:56:04,VALID,918.964,VALID,0,VALID,62.4129,VALID,495.948,VALID,24.3788,VALID,351,VALID,0,
2013-09-17, 09:57:04,VALID,918.954,VALID,0,VALID,61.8869,VALID,509.164,VALID,24.5935,VALID,2,VALID,0,
2013-09-17, 09:58:04,VALID,918.958,VALID,0,VALID,58.1133,VALID,511.312,VALID,24.6735,VALID,267,VALID,0,
2013-09-17, 09:59:04,VALID,918.911,VALID,0,VALID,59.1882,VALID,622.192,VALID,24.7888,VALID,277,VALID,0,
2013-09-17, 10:00:04,VALID,918.892,VALID,0,VALID,59.2568,VALID,538.602,VALID,25.0055,VALID,25,VALID,0,
2013-09-17, 10:01:04,VALID,918.902,VALID,0,VALID,59.1958,VALID,536.991,VALID,25.1598,VALID,330,VALID,0,
2013-09-17, 10:02:04,VALID,918.9,VALID,0,VALID,57.1604,VALID,518.189,VALID,25.0426,VALID,237,VALID,0,
2013-09-17, 10:03:04,VALID,918.863,VALID,0,VALID,61.0102,VALID,564.388,VALID,24.984,VALID,240,VALID,0,
2013-09-17, 10:04:04,VALID,918.871,VALID,0,VALID,59.1196,VALID,505.081,VALID,25.0836,VALID,357,VALID,0,
2013-09-17, 10:05:04,VALID,918.877,VALID,0,VALID,61.3075,VALID,556.76,VALID,24.9878,VALID,12,VALID,0,
2013-09-17, 10:06:04,VALID,918.859,VALID,0,VALID,56.5657,VALID,575.347,VALID,24.9469,VALID,279,VALID,0,
2013-09-17, 10:07:04,VALID,918.883,VALID,0,VALID,60.6976,VALID,525.924,VALID,25.0836,VALID,357,VALID,0,
2013-09-17, 10:08:04,VALID,918.854,VALID,0,VALID,58.5936,VALID,480.477,VALID,25.2007,VALID,16,VALID,0,
2013-09-17, 10:09:04,VALID,918.839,VALID,0,VALID,58.746,VALID,449.749,VALID,25.357,VALID,338,VALID,0,
2013-09-17, 10:10:04,VALID,918.833,VALID,0,VALID,59.3864,VALID,435.137,VALID,25.5327,VALID,338,VALID,0,
2013-09-17, 10:11:04,VALID,918.847,VALID,0,VALID,56.1617,VALID,421.921,VALID,25.4937,VALID,264,VALID,0,
2013-09-17, 10:12:04,VALID,918.841,VALID,0,VALID,55.6738,VALID,408.061,VALID,25.2984,VALID,262,VALID,0,
2013-09-17, 10:13:04,VALID,918.844,VALID,0,VALID,57.3815,VALID,412.681,VALID,25.2007,VALID,262,VALID,0,
2013-09-17, 10:14:04,VALID,918.84,VALID,0,VALID,56.642,VALID,407.202,VALID,25.1812,VALID,270,VALID,0,
2013-09-17, 10:15:04,VALID,918.814,VALID,0,VALID,56.7411,VALID,406.987,VALID,24.9078,VALID,247,VALID,0,
2013-09-17, 10:16:04,VALID,918.806,VALID,0,VALID,58.9138,VALID,403.549,VALID,24.8883,VALID,46,VALID,0,
2013-09-17, 10:17:04,VALID,918.774,VALID,0,VALID,60.225,VALID,407.847,VALID,24.9078,VALID,213,VALID,0,
2013-09-17, 10:18:04,VALID,918.78,VALID,0,VALID,62.5501,VALID,421.384,VALID,24.9274,VALID,214,VALID,0,
2013-09-17, 10:19:04,VALID,918.792,VALID,0,VALID,61.1779,VALID,426.541,VALID,24.8669,VALID,248,VALID,0,
2013-09-17, 10:20:04,VALID,918.769,VALID,0,VALID,57.4119,VALID,432.773,VALID,24.8883,VALID,248,VALID,0,
2013-09-17, 10:21:04,VALID,918.746,VALID,0,VALID,59.1501,VALID,450.716,VALID,25.0055,VALID,248,VALID,0,
2013-09-17, 10:22:04,VALID,918.753,VALID,0,VALID,59.8819,VALID,467.476,VALID,25.2007,VALID,248,VALID,0,
2013-09-17, 10:23:04,VALID,918.746,VALID,0,VALID,55.4985,VALID,492.188,VALID,25.3765,VALID,15,VALID,0,
2013-09-17, 10:24:04,VALID,918.749,VALID,0,VALID,56.9012,VALID,491.436,VALID,25.5132,VALID,8,VALID,0,
2013-09-17, 10:25:04,VALID,918.767,VALID,0,VALID,54.3473,VALID,500.139,VALID,25.5718,VALID,333,VALID,0,
2013-09-17, 10:26:04,VALID,918.748,VALID,0,VALID,57.6025,VALID,515.718,VALID,25.4937,VALID,333,VALID,0,
2013-09-17, 10:27:04,VALID,918.731,VALID,0,VALID,54.9496,VALID,542.363,VALID,25.3179,VALID,316,VALID,0,
2013-09-17, 10:28:04,VALID,918.733,VALID,0,VALID,56.7792,VALID,544.619,VALID,25.2007,VALID,326,VALID,0,
2013-09-17, 10:29:04,VALID,918.732,VALID,0,VALID,56.1922,VALID,525.71,VALID,25.1031,VALID,256,VALID,0,
2013-09-17, 10:30:04,VALID,918.681,VALID,0,VALID,58.3115,VALID,526.139,VALID,24.9664,VALID,14,VALID,0,
2013-09-17, 10:31:04,VALID,918.691,VALID,0,VALID,60.568,VALID,539.999,VALID,24.9859,VALID,34,VALID,0,
2013-09-17, 10:32:04,VALID,918.716,VALID,0,VALID,61.5591,VALID,516.899,VALID,25.1031,VALID,11,VALID,0,
2013-09-17, 10:33:04,VALID,918.696,VALID,0,VALID,58.6851,VALID,564.926,VALID,25.1226,VALID,340,VALID,0,
2013-09-17, 10:34:04,VALID,918.686,VALID,0,VALID,59.0815,VALID,679.888,VALID,25.1617,VALID,12,VALID,0,
2013-09-17, 10:35:04,VALID,918.66,VALID,0,VALID,60.5528,VALID,571.909,VALID,25.3374,VALID,4,VALID,0,
2013-09-17, 10:36:04,VALID,918.648,VALID,0,VALID,57.2595,VALID,588.563,VALID,25.4527,VALID,10,VALID,0,